54DEWAPOKER AGEN JUDI KARTU BANDAR TARUHAN TEXAS POKER ONLINE

Jackpot

Texas Poker Multi Jackpot System

Kini Telah hadir Jackpot SUPER ROYAL FLUSH

Kini Telah hadir Jackpot 2000 (khusus table VIP keatas).

Ikutilah global jackpot yang tersedia di system kami, dengan system jackpot terbaru dan pertama di indonesia, anda dapat membeli jackpot dengan harga 100 rupiah saja dan menangkan hadiahnya hingga puluhan juta rupiah.

Jackpot bukanlah suatu keharusan untuk dibeli, namun kami memberikan suatu fitur tambahan untuk member tercinta dari www.54dewapoker.org.

Terdapat tiga pilihan harga jackpot yang bisa anda beli yaitu :100,500,1000 dan 2000(khusus table VIP Keatas) rupiah.

Hadiah dari Multi jackpot system www.54dewapoker.org

  1. full house x 10 harga jackpot yang anda beli.
      (contoh:anda membeli 1000 maka:1000 X10 = 10.000)
  2. four of kind x 250 harga jackpot yang anda beli
      (contoh:anda membeli 1000 maka:1000 X250 = 250.000)
  3. Straight flush x 1200
      (contoh:anda membeli 1000 maka:1000 X1200 = 1.200.000)
  4. Royal flush x 10000 harga jackpot yang anda beli
      (contoh:anda membeli 1000 maka:1000 X10000 = 10.000.000)
  5. SUPER ROYAL FLUSH x 30000 harga jackpot yang anda beli
      (contoh:anda membeli 1000 maka:1000 X30000 = 30.000.000)

Kondisi kartu

  1. full house adalah kondisi kartu dimana kartu anda dan kartu tengah dengan total 7 kartu bisa mendapatkan nilai 5 kartu dengan kombinasi 1 tris(three of kind) dan 1 pair, contoh 3 kartu 10 dan 2 kartu 5
  2. Four of kind adalah kondisi kartu dimana kartu anda dan kartu tengah dengan total 7 kartu bisa mendapatkan nilai 5 kartu dengan kombinasi 4 kartu yang sama jumlah dan 1 kartu apapun juga contoh anda mendapatkan 4 buah kartu angka 3 dan 1 kartu apapun.
  3. Staright flush adalah kondisi kartu dimana kartu anda dan kartu tengah dengan total 7 kartu bisa mendapatkan nilai 5 kartu dengan kombinasi seri / staright dengan kembang yang sama contoh : urutan kartu dari angka 5, 6, 7, 8 , 9 10 dengan kembang yg sama misalnya as hati
  4. Royal flush adalah kondisi kartu dimana kartu anda dan kartu tengah dengan total 7 kartu bisa mendapatkan nilai 5 kartu dengan kombinasi seri / staright dengan kembang yang sama tetapi kartu tersebut haruslah dimulai dari 10. contoh 10, Queen, Jack, King dan aces dengan kembang yang sama
  5. Super Royal flush adalah kondisi kartu dimana Kedua kartu anda digabung dengan 3 kartu pertama meja haruslah royal flush. contoh kartu anda 10,Queen kembang sama dan 3 kartu pertama meja adalah Jack, King dan aces dengan kembang yang sama

Demikian adalah penjelasan dari Multi Jackpot www.54dewapoker.org terima kasih dan selamat bermain salam hoki dari kami

Texas Poker Jackpot Winner

TOP SUPER ROYAL FLUSH
No.TanggalNamaPriceWin
122/06 19:10Z2108Super Royal flush60,000,000
222/06 15:06M7H56LRCZZSuper Royal flush15,000,000
322/06 14:06ANDRAMANIHSuper Royal flush15,000,000
422/06 12:27JP_KERPOSuper Royal flush30,000,000
522/06 11:22ARBONG88Super Royal flush30,000,000
TOP ROYAL FLUSH
No.TanggalNamaPriceWin
122/06 22:07COPEET99Royal flush1,000,000
222/06 22:06BLONDNADIARoyal flush2,000,000
322/06 21:55DIRUJAKRoyal flush10,000,000
422/06 21:37E18271C8Royal flush2,000,000
522/06 21:34WAK_DOK_LARoyal flush20,000,000
TOP STRAIGHT FLUSH
No.TanggalNamaPriceWin
122/06 22:10NOUGATXStraight Flush1,200,000
222/06 22:02AIUGAME9Straight Flush240,000
322/06 22:01SWANTE17Straight Flush1,200,000
422/06 22:01TEMPOER999Straight Flush240,000
522/06 22:01MRTRAMStraight Flush240,000
LATEST JACKPOT
No.TanggalNamaPriceWin
122/06 22:10BIBIO19Full House2,000
222/06 22:10ASKIN93071Full House5,000
322/06 22:10SHAILENTFull House5,000
422/06 22:10NOUGATXStraight Flush1,200,000
522/06 22:10KOCINAWAFull House2,000
622/06 22:10JITUU86Full House2,000
722/06 22:10S14JB24D2YFull House2,000
822/06 22:10D00DD11Full House1,000
922/06 22:10D7154M503Full House5,000
1022/06 22:10KATUL86SEFull House1,000
1122/06 22:10Z4LVQBXNUKFull House2,000
1222/06 22:10BLGLUFull House20,000
1322/06 22:10BILLYYCFull House10,000
1422/06 22:10RINYUH18Full House5,000
1522/06 22:10LAPANGGGGFull House5,000
1622/06 22:10BP887699Full House2,000
1722/06 22:10COFFEE21Full House1,000
1822/06 22:10SUICIDALFull House10,000
1922/06 22:10STRRRWW00Full House2,000
2022/06 22:10HARI2504Full House2,000
2122/06 22:10BARCA878Full House10,000
2222/06 22:10SONIBANGFull House5,000
2322/06 22:10MONEEE30Full House2,000
2422/06 22:10JACK855Full House2,000
2522/06 22:10LETSI99Full House1,000
2622/06 22:10ENOKS123Full House10,000
2722/06 22:10TANTAN58Full House2,000
2822/06 22:10BDUL3011Four Of A Kind125,000
2922/06 22:10JW0YZFMN1UFull House1,000
3022/06 22:10ASTRID7Full House5,000
3122/06 22:10JANDO_LBYFull House1,000
3222/06 22:10TETEKOFull House10,000
3322/06 22:10ARB89295Full House20,000
3422/06 22:10YOREN51AFull House20,000
3522/06 22:10AFE3EE76Full House1,000
3622/06 22:10MITRA121Full House2,000
3722/06 22:10B3C19343Full House2,000
3822/06 22:10RENEGAN91Full House2,000
3922/06 22:10F4F47073Full House1,000
4022/06 22:10DEVAN_XXXFour Of A Kind125,000
4122/06 22:10KETEX182Full House10,000
4222/06 22:10TARNO222Full House2,000
4322/06 22:10OK21Full House5,000
4422/06 22:10INVANDER3Full House2,000
4522/06 22:10DWBTDEWA67Full House10,000
4622/06 22:10BANGMIUN7Full House10,000
4722/06 22:10REDMY99Full House2,000
4822/06 22:10KOKAYUNGFull House5,000
4922/06 22:10LAILA696Four Of A Kind50,000
5022/06 22:10KTS212534Full House20,000

Domino Multi Jackpot System

Ikutilah global jackpot yang tersedia di system kami, dengan system jackpot terbaru dan pertama di indonesia, anda dapat membeli jackpot dengan harga 100 rupiah saja dan menangkan hadiahnya hingga puluhan juta rupiah.

Jackpot bukanlah suatu keharusan untuk dibeli, namun kami memberikan suatu fitur tambahan untuk member tercinta dari www.54dewapoker.org.

Terdapat tiga pilihan harga jackpot yang bisa anda beli yaitu :100,500 dan 1000 rupiah.

Hadiah dari Multi jackpot system www.54dewapoker.org

  1. Murni Kecil x 50 harga jackpot yang anda beli.
      (contoh:anda membeli 1000 maka:1000 X 50 = 50.000)
  2. Murni Besar x 50 harga jackpot yang anda beli
      (contoh:anda membeli 1000 maka:1000 X 50 = 50.000)
  3. BALAK x 100 harga jackpot yang anda beli
      (contoh:anda membeli 1000 maka:1000 X 100 = 100.000)
  4. ENAM DEWA x 6666 harga jackpot yang anda beli
      (contoh:anda membeli 1000 maka:1000 X 6666 = 6.666.000)

Demikian adalah penjelasan dari Multi Jackpot www.54dewapoker.org terima kasih dan selamat bermain salam hoki dari kami

Domino Jackpot Winner

TOP ENAM DEWA
No.TanggalNamaPriceWin
122/06 20:13KATAK_88murni enam3,333,000
222/06 19:06AZKHA883murni enam6,666,000
322/06 18:49C8D56233murni enam6,666,000
422/06 17:36OMJIN01murni enam3,333,000
522/06 17:28AMAL886murni enam3,333,000
TOP BALAK
No.TanggalNamaPriceWin
122/06 22:09KELU88balak100,000
222/06 22:08BRIO_90balak50,000
322/06 22:05ANDDY69balak100,000
422/06 22:04SJPOKER035balak10,000
522/06 22:04IESTAbalak100,000
LATEST JACKPOT
No.TanggalNamaPriceWin
122/06 22:10PT4DANAKASAP98murni kecil25,000
222/06 22:09KELU88balak100,000
322/06 22:09TAMI205murni kecil50,000
422/06 22:09DYT0283murni kecil25,000
522/06 22:09SNI40168murni besar50,000
622/06 22:08BRIO_90balak50,000
722/06 22:07RISKIIImurni kecil50,000
822/06 22:07CEMONG44lucky9910,000
922/06 22:07MROMEOmurni besar5,000
1022/06 22:07PR4K0S0lucky99200,000
1122/06 22:06ARGALINTONlucky992,500
1222/06 22:06B3B3KSAWAHmurni besar50,000
1322/06 22:05SKADFCK690murni kecil5,000
1422/06 22:05HIDUP09murni besar25,000
1522/06 22:05ANDDY69balak100,000
1622/06 22:04SJPOKER035balak10,000
1722/06 22:04TANTEKITOmurni besar25,000
1822/06 22:04IESTAbalak100,000
1922/06 22:03NAR77murni besar25,000
2022/06 22:03JANG98murni kecil50,000
2122/06 22:03LARA01020murni besar5,000
2222/06 22:02GJAHEDOmurni besar25,000
2322/06 22:02MINKU999murni kecil50,000
2422/06 22:02LORRI65lucky9925,000
2522/06 22:02ZURISMAN_murni kecil50,000
2622/06 22:02EWEHELEHNAmurni besar50,000
2722/06 22:02DA453A88balak10,000
2822/06 22:01CB77ORIENmurni besar50,000
2922/06 22:01BFIbalak100,000
3022/06 22:01LARA01020murni besar5,000
3122/06 22:00VIKRAM66murni besar25,000
3222/06 22:00SAKOY82murni besar50,000
3322/06 22:00NIMEN456murni kecil25,000
3422/06 22:00UASSUKABEHbalak100,000
3522/06 21:59SJPOKER035murni besar5,000
3622/06 21:59LATUKAUmurni besar25,000
3722/06 21:59YUDIN00murni kecil5,000
3822/06 21:59TROLOK83murni kecil50,000
3922/06 21:58LARA01020murni kecil5,000
4022/06 21:58WITHDRAWNPbalak10,000
4122/06 21:58FAIEVMNGKEbalak50,000
4222/06 21:58GJAHEDOmurni besar25,000
4322/06 21:57FERY28murni besar50,000
4422/06 21:57ARIELDJmurni besar50,000
4522/06 21:57BOETONXmurni kecil5,000
4622/06 21:57GEOGLE99balak50,000
4722/06 21:57OMRE89balak10,000
4822/06 21:56PUTRAKAWASmurni kecil25,000
4922/06 21:56EYANGLUCKYmurni kecil25,000
5022/06 21:55KIBEDJO21murni besar50,000

Ceme Multi Jackpot System

Jackpot dilihat dari gabungan kartu pemain dengan kartu bandar. Bandar harus membeli jackpot sebanyak jumlah player yang sedang duduk. Sebagai contoh bila terdapat 3 pemain duduk bermain, dan bandar memutuskan untuk membeli jackpot Rp 1.000, maka pada periode tersebut bandar akan membeli jackpot sebanyak 3xRp1.000 = Rp3.000.

Jackpot bukanlah suatu keharusan untuk dibeli, namun kami memberikan suatu fitur tambahan untuk member tercinta dari www.54dewapoker.org.

Terdapat tiga pilihan harga jackpot yang bisa anda beli yaitu :100,500 dan 1000 rupiah.

Hadiah dari Multi jackpot system www.54dewapoker.org

  1. Murni Kecil x 50 harga jackpot yang anda beli.
      (contoh:anda membeli 1000 maka:1000 X 50 = 50.000)
  2. Murni Besar x 50 harga jackpot yang anda beli
      (contoh:anda membeli 1000 maka:1000 X 50 = 50.000)
  3. BALAK x 200 harga jackpot yang anda beli
      (contoh:anda membeli 1000 maka:1000 X 200 = 200.000)
  4. ENAM DEWA x 6666 harga jackpot yang anda beli
      (contoh:anda membeli 1000 maka:1000 X 6666 = 6.666.000)

Demikian adalah penjelasan dari Multi Jackpot www.54dewapoker.org terima kasih dan selamat bermain salam hoki dari kami

Ceme Jackpot Winner

TOP ENAM DEWA
No.TanggalNamaPriceWin
122/06 22:08633LIWmurni enam6,666,000
222/06 22:04H135murni enam6,666,000
322/06 21:57WANGI83murni enam3,333,000
422/06 21:38A68ANG8206991murni enam6,666,000
522/06 21:38CHERY02murni enam3,333,000
TOP BALAK
No.TanggalNamaPriceWin
122/06 22:10AHMAD2506balak100,000
222/06 22:10JP_KERPObalak200,000
322/06 22:09DAMSEX96balak20,000
422/06 22:08FIRDALISAbalak100,000
522/06 22:07DEWA_CILIKbalak200,000
LATEST JACKPOT
No.TanggalNamaPriceWin
122/06 22:10AHMAD2506balak100,000
222/06 22:10ADITXmurni besar50,000
322/06 22:10KRAMAT69murni besar50,000
422/06 22:10ESGILANGmurni besar50,000
522/06 22:10AANNAHZAmurni besar50,000
622/06 22:10JP_KERPObalak200,000
722/06 22:09OHMYGOD99murni kecil5,000
822/06 22:09ILH4M_T3L0murni besar50,000
922/06 22:09SENGKER3murni kecil50,000
1022/06 22:09TERCUKUPImurni kecil50,000
1122/06 22:09YANMAR76murni kecil50,000
1222/06 22:09SJ8U7G8JNQmurni kecil25,000
1322/06 22:09AHMAD2506murni kecil25,000
1422/06 22:09AHMAD2506murni kecil25,000
1522/06 22:09RIDHO1998murni kecil5,000
1622/06 22:09PANDU200murni kecil50,000
1722/06 22:09JP_LANGmurni kecil50,000
1822/06 22:09ORALITE_SFmurni kecil50,000
1922/06 22:09DAMSEX96balak20,000
2022/06 22:09ADEEGSOmurni kecil50,000
2122/06 22:09ANDYRAFI24murni besar50,000
2222/06 22:09JOE314murni kecil50,000
2322/06 22:09UCUP918murni kecil5,000
2422/06 22:09DENIST1murni kecil50,000
2522/06 22:09PARKJOmurni kecil25,000
2622/06 22:09BRENGOSS03murni kecil50,000
2722/06 22:09DIKI723murni kecil50,000
2822/06 22:09RUBEN82murni kecil25,000
2922/06 22:08YANMAR76murni kecil50,000
3022/06 22:08NENGINESmurni kecil25,000
3122/06 22:08RISBOWmurni besar25,000
3222/06 22:08RARA_28murni kecil50,000
3322/06 22:08SARU81murni kecil5,000
3422/06 22:08FADEL87murni besar50,000
3522/06 22:08AHMADEKImurni kecil25,000
3622/06 22:08NAP186murni kecil25,000
3722/06 22:08OM3T123murni kecil5,000
3822/06 22:08ERIKKU99murni besar50,000
3922/06 22:08LALAK03murni kecil5,000
4022/06 22:08ACEPQQmurni kecil50,000
4122/06 22:08FIRDALISAbalak100,000
4222/06 22:08633LIWmurni enam6,666,000
4322/06 22:08HANDICRUT1murni kecil50,000
4422/06 22:08HANDICRUT1murni kecil50,000
4522/06 22:08MILONAEmurni kecil25,000
4622/06 22:08ARSSUKSESmurni besar50,000
4722/06 22:07MUCI1202murni kecil50,000
4822/06 22:07ESGILANGmurni kecil50,000
4922/06 22:07KIYA80murni kecil50,000
5022/06 22:07ESGILANGmurni kecil50,000